Location: Northern Prairie Star Party
(53.2167°N, 112.5333°W)
Time: 07:15:25
(UTC-06:00)

Daily predictions for brighter satellites

Satellite Brightness Start Highest point End
(mag) Time Altitude Azimuth Time Altitude Azimuth Time Altitude Azimuth
Cosmos 2297 Rocket 2.3 21:01:12 10° NNW 21:06:54 88° WSW 21:12:35 10° SSE
Cosmos 1515 3.9 21:11:02 10° N 21:14:50 52° ENE 21:18:36 10° SSE
Helios 1B rocket 3.8 21:12:32 10° N 21:16:30 44° WNW 21:20:25 10° SW
Cosmos 1937 Rocket 3.8 21:13:02 10° NNW 21:18:13 54° ENE 21:23:24 10° SE
Cosmos 1570 Rocket 4.0 21:13:12 10° S 21:18:25 62° ESE 21:23:38 10° NNE
Envisat 3.2 21:16:07 10° SSE 21:21:06 59° ENE 21:26:07 10° N
H-2A R/B 3.7 21:20:41 10° E 21:23:51 17° NE 21:27:00 10° NNE
SJ-11-01 4.3 21:19:27 10° SSE 21:24:08 82° ENE 21:28:51 10° NNW
Cosmos 1821 Rocket 4.3 21:20:42 10° SSW 21:26:48 74° WNW 21:32:55 10° N
Terra 3.8 21:24:37 10° E 21:27:14 15° NE 21:29:51 10° NNE
YAOGAN 6 3.8 21:24:05 10° SE 21:27:17 28° ENE 21:30:31 10° N
Cosmos 1825 Rocket 4.2 21:24:09 10° N 21:28:21 38° ENE 21:32:28 10° SE
Iridium 4 Rocket 3.5 21:23:40 10° N 21:29:03 75° E 21:33:55 10° S
Cosmos 2150 Rocket 4.0 21:23:58 10° NNW 21:29:09 79° ENE 21:34:19 10° SSE
Cosmos 1605 Rocket 4.0 21:23:24 10° S 21:29:43 77° E 21:35:59 10° NNE
Cosmos 1743 4.1 21:28:32 10° SE 21:31:35 22° E 21:34:39 10° NE
Cosmos 990 Rocket 4.3 21:28:47 10° NNW 21:33:59 55° ENE 21:38:50 12° SE
YAOGAN 11 4.3 21:30:11 10° SSE 21:34:42 78° WSW 21:39:11 10° NNW
Cosmos 972 Rocket 4.4 21:30:43 10° NNW 21:36:22 73° ENE 21:42:42 10° SSE
Cosmos 1975 2.9 21:32:34 10° S 21:36:38 61° E 21:40:42 10° NNE
Cosmos 2100 Rocket 4.4 21:30:53 10° SSE 21:36:43 43° E 21:42:32 10° NNE
Cosmos 1953 Rocket 4.3 21:33:10 10° N 21:37:18 36° ENE 21:40:55 13° SE
Cosmos 2061 Rocket 4.5 21:32:00 10° SSE 21:37:47 40° E 21:43:33 10° NNE
Cosmos 1066 Rocket 4.2 21:32:49 10° NNW 21:38:26 77° ENE 21:44:11 10° SSE
Lacrosse 5 rocket 3.0 21:38:38 10° W 21:41:38 23° SW 21:44:32 10° S
MetOp-A 4.4 21:36:32 10° SE 21:41:46 56° ENE 21:47:01 10° N
SPOT 1/Viking Rocket 4.2 21:37:52 12° SE 21:42:21 40° ENE 21:47:13 10° N
BREEZE-M DEB (TANK) 2.9 21:43:35 10° WSW 21:45:28 26° S 21:47:26 15° SE
Cosmos 1626 Rocket 4.1 21:41:38 10° NNW 21:46:01 60° W 21:50:19 10° S
Cosmos 1842 4.4 21:43:06 10° N 21:46:32 28° ENE 21:48:55 16° ESE
H-2A R/B 1.9 21:43:45 10° SSE 21:47:51 74° ENE 21:52:01 10° NNW
EO 1 Delta rocket 4.4 21:43:21 10° N 21:47:55 63° WNW 21:52:46 10° SSW
deb Chang Zheng 4 4.1 21:46:31 10° NNE 21:50:44 39° E 21:54:56 10° SSE
Cosmos 1697 Rocket 3.2 21:46:37 10° S 21:51:43 36° ESE 21:56:49 10° NE
ALOS 4.4 21:48:50 10° SSW 21:52:45 26° W 21:56:44 10° NW
Cosmos 1898 Rocket 3.8 21:48:35 10° NNW 21:53:54 68° WSW 21:59:08 10° SSE
Cosmos 2278 3.7 21:48:28 10° SSW 21:54:09 82° ESE 21:59:55 10° NNE
Cosmos 1602 Rocket 4.5 21:50:05 10° NNW 21:54:26 50° W 21:58:44 10° S
ERS-1 Rocket 3.4 21:49:47 10° S 21:54:45 62° WSW 21:59:46 10° NNW
Cosmos 1758 Rocket 4.0 21:52:15 10° N 21:56:29 45° ENE 21:59:30 17° SE
Cosmos 1455 Rocket 4.1 21:52:31 10° SSW 21:56:44 48° WNW 22:01:00 10° N
SL-16 R/B 4.1 21:57:20 10° E 21:57:20 10° E 21:58:20 10° E
Cosmos 1125 Rocket 4.1 21:55:01 10° NNW 21:59:58 42° NE 22:03:32 18° ESE
NOAA 11 4.5 21:57:00 15° SE 22:01:21 53° ENE 22:06:40 10° N
NOSS 2-1 (D) 3.9 21:59:10 10° WSW 22:03:15 71° NW 22:08:20 10° NE
NOSS 2-1 (C) 3.9 22:00:10 10° SW 22:04:16 71° NW 22:09:23 10° NE
Meteor 1-12 Rocket 4.5 21:59:50 10° SSW 22:05:36 79° WNW 22:11:31 10° NNE
Cosmos 2228 4.4 22:05:54 18° ESE 22:06:58 20° E 22:10:05 10° NE
Cosmos 1763 Rocket 4.4 22:04:14 17° SSE 22:07:05 27° E 22:11:20 10° NE
Cosmos 2369 3.7 22:01:49 10° SSW 22:07:31 89° ESE 22:13:17 10° NNE
Cosmos 1939 Rocket 3.8 22:04:36 10° S 22:08:38 50° W 22:12:43 10° NNW
Cosmos 1980 Rocket 2.8 22:08:51 10° S 22:13:53 34° ESE 22:18:58 10° NE
Cosmos 1459 Rocket 3.9 22:08:11 10° S 22:14:12 70° E 22:20:18 10° NNE
Lacrosse 5 2.6 22:10:33 10° WNW 22:15:20 42° SW 22:18:37 19° SSE
ARGOS 3.2 22:12:23 18° SSE 22:16:20 66° ENE 22:21:43 10° NNW
ATLAS CENTAUR R/B 3.6 22:11:55 10° W 22:16:28 34° NNW 22:20:50 10° NE
Cosmos 468 Rocket 3.9 22:14:21 10° S 22:19:23 62° ESE 22:24:29 10° NNE
NOSS 2-1 (E) 4.3 22:16:12 10° WSW 22:20:22 61° NW 22:25:38 10° NE
Tiangong 1 3.5 22:19:39 10° SSW 22:20:22 11° SSW 22:20:22 11° SSW
Cosmos 1666 3.4 22:22:16 28° SE 22:23:20 34° E 22:26:47 10° NNE
Cosmos 2058 Rocket 3.7 22:21:53 24° SE 22:24:00 39° E 22:28:12 10° NNE
SPOT 5 3.2 22:20:37 12° S 22:25:15 66° WSW 22:30:02 10° NNW
Meteor 1-21 4.4 22:21:35 10° NNW 22:27:21 80° W 22:32:13 15° S
Cosmos 1814 Rocket 4.0 22:22:26 10° S 22:27:42 62° ESE 22:32:57 10° NNE
Cosmos 841 Rocket 4.1 22:25:05 22° SSE 22:27:45 35° ESE 22:32:29 10° NE
RESURS DK-1 3.5 22:27:40 10° NW 22:31:32 39° WSW 22:34:13 18° S
Cosmos 1500 4.0 22:30:27 10° SSW 22:34:07 51° WNW 22:37:50 10° N
Cosmos 1606 Rocket 3.5 22:31:48 18° S 22:35:00 71° E 22:39:28 10° NNE
MetOp-B 4.5 22:30:43 14° S 22:35:18 64° WSW 22:40:39 10° NNW
USA 215 3.3 22:32:14 23° SE 22:36:33 68° SSW 22:43:06 10° WNW
Cosmos 2263 Rocket 2.7 22:31:31 10° NNW 22:36:55 48° NE 22:39:56 25° ESE
PSLV R/B 3.8 22:36:12 26° SSW 22:37:37 50° W 22:40:37 10° NNW
Cosmos 1802 Rocket 4.0 22:33:59 10° S 22:40:23 89° ESE 22:46:54 10° N
Cosmos 1340 3.5 22:38:40 10° NNW 22:42:20 47° W 22:44:44 19° SSW
CZ-4C R/B 3.9 22:41:00 32° SE 22:42:49 55° ENE 22:47:08 10° N
CZ-4 SHROUD 4.0 22:43:50 28° SSW 22:45:04 46° W 22:48:04 10° NNW
Cosmos 2322 Rocket 3.2 22:45:08 25° ESE 22:45:29 25° ESE 22:50:00 10° NE
SL-08 R/B 4.4 22:40:20 15° S 22:45:39 73° E 22:51:49 10° NNE
CARTOSAT-1 3.9 22:44:46 34° ESE 22:46:17 50° ENE 22:50:30 10° N
Cosmos 405 Rocket 3.0 22:43:42 10° N 22:47:26 48° ENE 22:48:12 41° ESE
Cosmos 1656 3.8 22:42:13 10° SW 22:47:50 79° WNW 22:53:24 10° NNE
SL-08 RB Rocket 3.7 22:45:33 28° SSE 22:48:03 85° WSW 22:52:43 10° NNW
Landsat 7 3.8 22:46:40 32° SSE 22:48:51 73° ENE 22:53:38 10° NNW
Cosmos 2297 Rocket 4.4 22:46:24 10° WNW 22:50:11 19° W 22:53:57 10° SW
SL-19 R/B 4.1 22:45:33 10° NNE 22:51:11 71° ESE 22:55:05 19° S
Cosmos 2360 4.5 22:48:35 24° S 22:51:39 45° ESE 22:57:06 10° NE
CZ-4 R/B 4.1 22:47:36 10° NNE 22:52:10 47° E 22:53:38 35° SSE
Cosmos 372 Rocket 4.0 22:49:13 10° NNW 22:54:19 66° ENE 22:56:25 35° SE
Meteor 2-9 Rocket 4.1 22:52:14 24° S 22:55:30 66° E 23:00:53 10° NNE
Genesis I 4.1 22:51:56 10° NW 22:55:44 41° NE 22:57:09 29° E
Cosmos 2016 Rocket 4.0 22:52:20 10° SSW 22:58:28 82° W 23:04:44 10° N
Cosmos 1726 Rocket 3.6 22:56:28 22° SSW 22:59:16 81° WNW 23:03:43 10° N
YAOGAN 6 4.2 22:58:35 17° SSW 23:00:50 31° W 23:04:11 10° NNW
ASTEX 1 3.9 22:56:13 10° N 23:01:11 62° W 23:05:29 14° SSW
H-2A R/B 1.9 23:00:30 35° SSE 23:02:37 83° ENE 23:07:35 10° NNW
Terra 1.8 23:02:30 39° SE 23:04:13 73° ENE 23:08:59 10° NNW
Cosmos 1812 Rocket 4.3 23:06:48 34° E 23:06:54 34° E 23:10:51 10° NNE
Cosmos 1743 4.0 23:03:31 10° SW 23:07:14 41° WNW 23:10:59 10° N
GEOS 3 Rocket 3.9 23:05:47 10° NE 23:10:40 42° SE 23:11:28 40° SSE
Cosmos 2098 Rocket 4.0 23:07:38 15° SSW 23:13:32 83° W 23:19:10 10° N
Cosmos 2278 Rocket 4.1 23:15:21 10° NNW 23:19:45 22° NNE 23:23:57 11° E
CZ-4B R/B 3.3 23:15:47 10° NNE 23:20:34 86° WNW 23:22:56 30° SSW
Tsikada Rocket 4.5 23:14:53 10° NNW 23:21:12 59° W 23:25:17 23° SSW
Spot 4 3.8 23:20:58 48° SSE 23:22:16 79° ENE 23:27:04 10° NNW
GP-B 3.0 23:26:08 10° N 23:30:37 75° E 23:31:16 62° SSE
Cosmos 836 Rocket 4.4 23:28:48 36° SSW 23:30:59 77° ESE 23:36:19 10° NNE
Cosmos 1697 Rocket 3.4 23:30:01 10° SW 23:35:32 53° NW 23:41:05 10° NNE
Cosmos 1707 2.6 23:33:13 10° N 23:37:11 81° E 23:37:13 81° E
SAR-Lupe-2 3.6 23:38:07 71° NNE 23:38:07 71° NNE 23:41:28 10° NNW
Okean 3 Rocket 3.5 23:34:42 10° N 23:39:08 68° ENE 23:39:30 64° ESE
SL-16 R/B 2.3 23:39:10 49° SSE 23:40:09 56° ESE 23:45:43 10° NE
Cosmos 1125 Rocket 4.4 23:37:14 10° NW 23:42:03 39° WSW 23:43:49 30° SW
IGS 5A 3.8 23:43:02 49° SW 23:43:38 55° W 23:47:45 10° NNW
Cosmos 2228 3.6 23:42:45 36° SW 23:44:11 53° WNW 23:48:25 10° N
Cosmos 1763 Rocket 4.0 23:44:11 13° SW 23:48:37 56° WNW 23:53:38 10° NNE
Cosmos 1844 Rocket 3.4 23:44:53 10° NNW 23:50:14 44° NE 23:52:09 32° E
Meteor 2-5 Rocket 4.0 23:46:13 10° NNW 23:52:08 67° W 23:54:05 42° SSW
ALOS 2 3.7 23:54:27 32° ENE 23:54:47 33° ENE 23:58:43 10° N
Lacrosse 5 4.3 23:56:45 10° WSW 23:57:10 10° WSW 23:57:34 10° SW
